Weather in Sharomy

Russia / Kamchatka Krai     54°24′01″N   158°12′39″E
temp.,
°C
wind,
m/s
gust,
m/s
humid.,
%
clouds,
%
prec.,
mm/h
press.,
hPa
HPBL,
m
28 february, sun
sun2800:00−12nne2796100 1.8 1012437
03:00−13nne3896100 1.3 1010509
06:00−14ne2796100 2.1 1009399
09:00−14ne2496100 0.9 1008330
12:00−12ne1392100 1.5 1005454
15:00−11ene1288100 0.3 1002453
18:00−12ese1195100 0.4 99991
21:00−14wsw2296100 0.2 99927
1 march, mon
mon100:00−14sw2294100 0.4 99742
03:00−15ssw129299 0.1 99532
06:00−16wnw119195 0.3 99520
09:00−16sw128977 0.1 99626
12:00−11ssw237984 0.1 996348
15:00−5ssw156693 0.0 9961091
18:00−7sw367497 0.0 996279
21:00−10sw3677100 0.0 1000156
2 march, tue
tue200:00−11sw3580100 0.0 1002146
03:00−13sw3579100 0.0 1004144
06:00−13sw3579100 0.0 1007145
09:00−14sw4779100 0.0 1012192
12:00−9sw4869100 0.0 1014858
15:00−7w6106349 0.0 10171845
18:00−10wsw4107346 0.1 1020590
21:00−16sw22760 0.0 102521
3 march, wed
wed300:00−17sw228140 0.0 102728
03:00−17wsw1182100 0.0 102621
06:00−15n1286100 0.0 102339
09:00−15nne2396100 0.3 1019183
12:00−14nne3594100 1.6 1010446
15:00−13nne3694100 2.9 1001559
18:00−13ne2596100 9.3 992446
21:00−14nne1397100 7.8 982222
4 march, thu
thu400:00−14sw1196100 13.6 97571
03:00−10sw6197567 0.7 9811281
06:00−14wsw4157135 0.8 9911051
09:00−15wsw6167329 0.1 9961522
12:00−13w10216717 0.1 10012158
15:00−11wsw1021665 0.1 10042101
18:00−10sw619756 0.1 10042020
21:00−10ssw4149161 0.1 1002801